C/2004 L1 (LINEAR)

Epoch 2005 Mar. 11.0 TT = JDT 2453440.5  

T 2005 Mar. 30.10107 TT                                 Nakano

q   2.0474451            (2000.0)            P               Q

z  +0.0011301      Peri.  243.57822     -0.94639671     -0.01921154

 +/-0.0000129      Node    66.17661     +0.06266548     +0.96834302

e   0.9976863      Incl.  159.36173     -0.31686954     +0.24888292

From 390 observations 2004 June 12-2005 Dec. 1, mean residual 0".69.

   Nongravitational parameters A1 = -2.93 +/- 0.21, A2 = -2.1154 +/- 0.8197.

   (1/a)org.= +0.001375, (1/a)fut.= +0.001386 (+/-0.000013), Q= 7.

Residuals in seconds of arc 

2004/                     040731 442 (6.6-  9.3+)   050401 213  0.0   0.6+  

040612 704  0.4-  0.6-    040803 048  1.8-  0.9+    050404 834  0.4+  0.1-  

040612 704  0.9+  0.7-    040806 372  0.7+  0.3-    050404 834  0.5-  0.3-  

040612 704  1.5+  1.1-    040813 360  0.4-  0.9-    050404 844  0.0   0.1-  

040612 A50  0.6+  0.8+    040813 360  0.5-  0.5-    050404 844  0.1+  0.1+  

040612 A50  0.6-  0.5+    040813 360  0.6-  0.6-    050404 844  0.4+  0.2-  

040612 A50  0.3-  0.7+    040902 673  0.8-  0.2+    050404 844  0.2+  0.1-  

040612 A50  0.1-  1.1+    040902 673  0.5-  0.1+    050404 844  0.3+  0.3-  

040612 A50  0.7+  1.6+    040902 673  0.6-  0.1-    050405 834  0.3-  0.5-  

040612 J95  1.1-  1.6-    040902 673  0.9-  0.3-    050405 423  0.5-  0.4-  

040612 620  0.1-  0.2-    2005/                     050405 415  0.2-  0.0   

040612 620  0.5+  0.4-    050121 844  1.9-  1.5+    050405 415  1.0-  0.1-  

040613 859  0.7+  0.3-    050121 844  0.9-  1.1+    050405 415  0.6-  0.1-  

040613 859  0.3-  0.4-    050121 844  1.4-  0.3+    050405 423  0.6-  0.0   

040613 859  0.4+  0.5-    050207 I77 (2.5-  0.6-)   050405 423  0.1-  0.3-  

040613 J95  1.1+  0.3+    050207 I77  0.2-  0.5-    050405 423  0.2-  0.4+  

040613 859 (2.3-  1.5-)   050207 I77  0.3+  0.0     050405 D88  0.0   1.0-  

040613 J87  0.5+  1.2-    050207 I77  0.4+  1.1+    050405 349  1.0+  0.2+  

040613 J87  0.5-  0.5-    050208 I77  1.9-  0.6+    050405 D88  1.1-  0.3+  

040613 J87  0.1-  0.0     050208 I77  1.8-  0.5+    050405 349  0.8+  0.5+  

040613 941  0.4+  0.4-    050208 I77 (2.3-  0.9+)   050405 349  0.5+  0.5+  

040613 941  0.3+  0.6-    050210 349  0.4-  0.5+    050405 D88  1.1-  0.5-  

040613 941  0.2+  0.5-    050210 349  0.5-  0.8+    050406 I31  0.3+  1.4+  

040613 941  0.2+  0.5-    050210 349  0.5-  1.0+    050406 I31  1.9-  0.4-  

040613 G90  0.2-  0.1+    050210 349  0.7-  0.8+    050406 I31  0.0   0.3-  

040613 G90  0.5-  0.1+    050211 349  0.8-  1.0+    050406 I31  0.3-  0.4-  

040613 G90  0.7-  0.2+    050211 349  0.3-  1.1+    050406 415  1.0-  0.1-  

040613 704  0.1-  0.1-    050211 349  0.0   0.7+    050406 415  1.0-  0.1-  

040613 704  0.6-  1.1-    050215 A61  1.1+  1.6+    050409 844  0.0   0.1-  

040613 704  0.4+  0.2-    050215 A61  1.3+  0.4+    050409 844  0.4+  0.2-  

040613 704  0.5+  0.1+    050215 A61 (3.2+  0.8-)   050409 844  0.0   0.3-  

040613 704  0.7+  0.1+    050218 844 (3.2-  0.7-)   050409 415  1.1-  0.0   

040613 704  0.4+  0.6-    050218 844 (3.3-  0.2-)   050409 415  0.9-  0.0   

040613 704  0.3+  0.1+    050218 844 (2.4-  0.1+)   050409 D88  0.8+  0.3-  

040613 704  0.1-  0.4-    050225 E12  2.0-  1.7+    050409 D88  0.2-  0.1+  

040613 704  0.6+  0.6+    050225 E12 (2.9-  2.2+)   050409 D83  1.0-  0.4+  

040613 704 (3.4+  1.2+)   050225 E12 (1.9-  2.1+)   050409 D83  0.1+  0.1-  

040613 926  0.6+  0.1-    050225 E12  0.5-  0.2+    050409 D83  0.9-  0.3+  

040613 926  0.4-  0.0     050226 349  1.2-  0.5+    050409 D83  0.7-  0.7+  

040613 926  0.7-  0.0     050226 349  1.5-  0.4+    050410 349  1.3+  0.2-  

040613 651  1.2-  0.2-    050226 349  1.0-  0.6+    050410 349  1.5+  0.2-  

040613 651  0.2+  0.1-    050228 415  0.5+  0.2-    050410 349  1.4+  0.4-  

040613 651  0.8+  0.1-    050228 415  0.2+  0.4-    050410 213  0.4+  0.0   

040613 620  0.5-  0.9-    050305 423  0.7-  0.2+    050410 213  0.3-  0.3+  

040613 557  0.1+  0.1-    050305 423  0.3+  0.3+    050410 213  0.6-  0.4-  

040613 557  0.4+  0.3-    050305 423  0.5+  0.1+    050410 445 (2.4+  2.8-) 

040613 557  0.1+  0.3-    050305 423  1.0+  0.8-    050410 445 (2.7+  2.3-) 

040613 557  0.2+  0.2-    050305 423  0.0   0.1-    050412 445  0.5+  1.9-  

040613 557  0.2+  0.3-    050305 423  0.8+  0.2-    050412 445  1.9+  1.9-  

040613 557  0.1+  0.3-    050306 415  0.5+  0.6-    050412 445  1.9+  0.3+  

040614 734  0.3+  0.3-    050306 415  0.2-  0.8-    050412 J78  0.1+  0.0   

040614 734  0.9-  0.2-    050306 415  0.8+  0.5-    050412 J78  0.7-  0.3-  

040614 G90  0.9-  0.6-    050306 349  1.1+  0.1-    050412 J78  0.5-  0.2+  

040614 G90  0.4-  0.3-    050306 349  1.5+  0.6-    050415 445 (1.6+  3.1-) 

040614 G90  0.2+  0.2-    050309 834  0.5+  0.1-    050415 939  0.1-  0.4+  

040614 704  0.1+  0.1-    050309 834  1.0+  0.1+    050415 939  0.2-  0.1+  

040614 704  0.2+  0.3+    050309 834  1.1+  0.6-    050415 445 (1.2+  2.7-) 

040614 704  0.1+  0.3-    050310 834  0.1-  0.3-    050415 445 (2.4+  0.9-) 

040614 704  0.2+  0.2-    050310 834  0.3+  0.2+    050415 939  0.4-  0.1-  

040614 673  0.4+  0.3-    050310 834  0.4+  0.2-    050416 213  0.8+  1.4-  

040614 704  0.1-  0.0     050310 423  0.3+  0.1-    050416 213  0.6+  0.8-  

040614 673  0.1-  0.4-    050310 423  0.1-  0.2+    050416 213  0.0   1.3-  

040614 673  0.2+  0.4-    050310 423  0.1+  0.4+    050418 E12  0.6-  0.1+  

040614 704  0.4+  0.1-    050310 423  0.3+  0.4-    050418 E12  1.3-  0.5+  

040614 704  0.0   0.2+    050310 423  0.4+  0.0     050418 E12  1.1-  0.6+  

040614 673  0.4-  0.5-    050311 423  0.0   0.4+    050418 E12  0.7-  0.4+  

040614 704  0.3+  0.2-    050311 423  0.1+  0.1+    050421 844  0.6-  1.4+  

040614 704  0.2+  0.1-    050311 423  0.1-  0.2-    050421 844  0.5-  1.2+  

040614 926  1.3+  0.1-    050311 423  0.1+  0.2+    050421 844  0.2-  1.2+  

040614 926  0.1+  0.4-    050312 423  0.1+  0.4-    050421 844  0.8-  1.3+  

040614 926  0.6-  0.0     050312 423  0.7+  0.2-    050421 844  0.1-  1.3+  

040614 673  0.6-  0.6-    050312 423  0.1-  0.0     050421 703  1.8-  0.3-  

040614 673  0.2+  0.0     050312 423  0.1-  0.3-    050421 703  1.3-  0.6+  

040614 204  0.4-  0.4-    050314 D83  1.2-  0.9-    050421 703  1.5-  0.3+  

040616 704  0.6+  0.0     050314 D83  1.5-  0.8-    050421 703  1.0-  0.3-  

040616 704  0.1+  0.2+    050314 D83  1.1-  0.3+    050422 415  1.0-  0.7+  

040616 704  0.9-  0.5-    050314 D83  1.2-  0.6-    050422 415  0.5-  0.4+  

040621 461  0.1-  0.1-    050315 I77  0.0   0.3-    050423 349  0.3+  1.2-  

040621 461  0.4+  0.2-    050316 834  1.3+  0.1+    050423 349  0.3+  1.2-  

040621 461  0.1-  0.4-    050316 834  0.1-  0.3+    050423 349  0.2+  1.2-  

040625 213  1.2+  0.1+    050318 E12 (0.2-  2.2+)   050425 A06  0.5+  1.2-  

040625 213 (2.6+  0.5+)   050318 E12 (0.8+  4.7+)   050425 A06  1.6+  0.9-  

040626 859  1.5+  0.2-    050318 E12 (0.1-  2.9+)   050425 213  0.6+  0.4+  

040626 859  0.1-  0.6-    050318 D88  1.4+  1.3+    050425 213  0.0   0.2+  

040626 859 (2.5+  2.6-)   050318 D88  1.1+  1.1+    050425 213  0.0   0.1+  

040626 118  0.5-  0.3+    050318 D88  1.0+  1.0-    050427 360  0.6-  0.2+  

040626 118  0.1+  0.8+    050318 E12  0.8+  0.9-    050427 360  0.6-  0.3+  

040704 859 (2.3+  0.1+)   050319 844  0.7+  0.3+    050427 844  0.3+  0.4+  

040704 859  1.4-  0.6-    050319 844  0.4+  1.1-    050427 844  0.6+  0.4-  

040704 859  0.5-  0.4-    050319 844  0.1+  0.4+    050427 844  0.9+  0.1+  

040704 859 (3.2+  0.0 )   050319 415  0.3-  0.2+    050428 844  0.4+  0.2+  

040705 859  0.2-  0.9-    050319 415  0.1+  0.7-    050428 844  0.5+  0.0   

040705 859  0.8-  0.5-    050319 D88  0.3+  1.6+    050428 213  0.2+  0.2-  

040706 859 (2.2-  0.7-)   050319 D88  0.4-  0.7+    050428 213  0.1-  0.6-  

040706 859  0.5-  0.2-    050319 D88 (2.2+  1.4+)   050428 213  0.5-  0.7-  

040711 104  0.4-  0.2+    050325 844  1.0+  1.4+    050429 A30  0.9+  0.2+  

040711 104  1.0-  0.4-    050325 844  0.5+  1.2+    050429 A30  0.8+  0.3+  

040711 104  0.6-  0.5-    050325 844  0.6+  0.8+    050429 A30  0.8+  0.3+  

040711 104  0.4-  0.4-    050325 844  0.5+  0.8+    050501 844 (2.1+  0.8-) 

040713 360  0.2-  0.1+    050325 844  0.2+  0.7+    050501 844  1.6+  0.4-  

040713 360  0.3-  0.1-    050325 834  0.1+  0.7-    050501 844  1.4+  0.1-  

040713 360  0.7-  0.1-    050326 844  0.3+  0.1+    050501 215  0.6+  0.9+  

040714 704  0.9+  0.8+    050326 844  0.0   1.1+    050502 E12 (6.0+  1.8-) 

040714 704  0.1-  0.2-    050326 844  1.1-  1.3-    050502 E12 (4.8+  1.6-) 

040714 704  0.9-  0.1-    050327 213  0.4-  0.6-    050502 E12 (3.3+  1.3-) 

040714 704  1.0+  0.2+    050327 213  1.2+  0.9-    050502 E12 (5.0+  1.1-) 

040714 704  1.0+  0.0     050327 213  0.3-  1.2+    050503 349  0.7+  0.5-  

040714 561  1.2+  0.0     050328 I77  0.6-  0.4-    050503 349  0.9+  0.7-  

040714 561  0.2+  1.0+    050328 I77  0.4-  0.3-    050503 349  0.7+  0.8-  

040714 561  0.9-  0.5+    050328 I77  0.2-  0.2-    050503 J76  0.1+  0.2+  

040715 704  0.1-  0.1+    050328 I77  0.2-  0.3+    050503 J76  0.3-  0.3-  

040715 704  1.9+  0.2+    050328 415  0.5-  0.3-    050503 J76  0.6-  0.2-  

040715 704  1.7+  0.1-    050328 415  0.7-  0.7-    050506 130  0.1-  0.1+  

040715 704  1.3+  0.0     050328 415  0.7-  0.2-    050506 130  0.7-  0.3-  

040715 704  1.0+  0.2+    050330 372  0.9+  1.2-    050506 130  0.0   0.6-  

040716 704  0.5-  0.0     050330 372  0.6+  1.1-    050506 939  0.6-  1.0+  

040716 704  1.0-  0.4+    050330 415  0.4-  0.6-    050506 939  0.4+  0.1-  

040716 704  0.6-  0.8-    050330 415  0.7-  0.6-    050506 939  0.9+  1.4-  

040716 704  0.1+  0.3-    050330 360  0.3-  0.3-    050508 J76  0.4+  0.5+  

